Time,TemperatureF,DewpointF,PressureIn,WindDirection,WindDirectionDegrees,WindSpeedMPH,WindSpeedGustMPH,Humidity,HourlyPrecipIn,Conditions,Clouds,dailyrainin,SoftwareType,DateUTC
2013-05-23 00:00:00,44.0,-99.9,-100.00,South,185,23.0,25.0,-999,-99.99,,,-99.99,,2013-05-23 06:00:00,
2013-05-23 00:02:00,44.0,-99.9,-100.00,South,185,14.0,19.0,-999,-99.99,,,-99.99,,2013-05-23 06:02:00,
2013-05-23 00:52:00,44.0,-99.9,-100.00,South,185,23.0,25.0,-999,-99.99,,,-99.99,,2013-05-23 06:52:00,
2013-05-23 01:00:00,44.0,-99.9,-100.00,South,185,9.0,20.0,-999,-99.99,,,-99.99,,2013-05-23 07:00:00,
2013-05-23 01:59:00,44.0,-99.9,-100.00,South,185,9.0,20.0,-999,-99.99,,,-99.99,,2013-05-23 07:59:00,
2013-05-23 02:52:00,44.0,-99.9,-100.00,South,185,12.0,17.0,-999,-99.99,,,-99.99,,2013-05-23 08:52:00,
2013-05-23 03:00:00,42.0,-99.9,-100.00,South,185,9.0,16.0,-999,-99.99,,,-99.99,,2013-05-23 09:00:00,
2013-05-23 03:02:00,44.0,-99.9,-100.00,South,185,12.0,17.0,-999,-99.99,,,-99.99,,2013-05-23 09:02:00,
2013-05-23 03:53:00,42.0,-99.9,-100.00,South,185,9.0,16.0,-999,-99.99,,,-99.99,,2013-05-23 09:53:00,
2013-05-23 04:00:00,41.0,-99.9,-100.00,South,185,7.0,13.0,-999,-99.99,,,-99.99,,2013-05-23 10:00:00,
2013-05-23 04:52:00,41.0,-99.9,-100.00,South,185,7.0,13.0,-999,-99.99,,,-99.99,,2013-05-23 10:52:00,
2013-05-23 05:52:00,41.0,-99.9,-100.00,South,185,6.0,9.0,-999,-99.99,,,-99.99,,2013-05-23 11:52:00,
2013-05-23 06:00:00,41.0,-99.9,-100.00,South,185,9.0,10.0,-999,-99.99,,,-99.99,,2013-05-23 12:00:00,
2013-05-23 06:02:00,41.0,-99.9,-100.00,South,185,6.0,9.0,-999,-99.99,,,-99.99,,2013-05-23 12:02:00,
2013-05-23 06:52:00,41.0,-99.9,-100.00,South,185,9.0,10.0,-999,-99.99,,,-99.99,,2013-05-23 12:52:00,
2013-05-23 07:52:00,44.0,-99.9,-100.00,South,185,9.0,13.0,-999,-99.99,,,-99.99,,2013-05-23 13:52:00,
2013-05-23 08:00:00,48.0,-99.9,-100.00,South,185,13.0,17.0,-999,-99.99,,,-99.99,,2013-05-23 14:00:00,
2013-05-23 08:02:00,44.0,-99.9,-100.00,South,185,9.0,13.0,-999,-99.99,,,-99.99,,2013-05-23 14:02:00,
2013-05-23 08:52:00,48.0,-99.9,-100.00,South,185,13.0,17.0,-999,-99.99,,,-99.99,,2013-05-23 14:52:00,
2013-05-23 09:00:00,51.0,-99.9,-100.00,South,185,17.0,20.0,-999,-99.99,,,-99.99,,2013-05-23 15:00:00,
2013-05-23 09:54:00,51.0,-99.9,-100.00,South,185,17.0,20.0,-999,-99.99,,,-99.99,,2013-05-23 15:54:00,
2013-05-23 10:00:00,55.0,-99.9,-100.00,South,185,7.0,16.0,-999,-99.99,,,-99.99,,2013-05-23 16:00:00,
2013-05-23 10:53:00,55.0,-99.9,-100.00,South,185,7.0,16.0,-999,-99.99,,,-99.99,,2013-05-23 16:53:00,
2013-05-23 11:00:00,57.0,-99.9,-100.00,South,185,9.0,16.0,-999,-99.99,,,-99.99,,2013-05-23 17:00:00,
2013-05-23 11:53:00,57.0,-99.9,-100.00,South,185,9.0,16.0,-999,-99.99,,,-99.99,,2013-05-23 17:53:00,
2013-05-23 12:00:00,60.0,-99.9,-100.00,South,185,5.0,18.0,-999,-99.99,,,-99.99,,2013-05-23 18:00:00,
2013-05-23 12:52:00,60.0,-99.9,-100.00,South,185,5.0,18.0,-999,-99.99,,,-99.99,,2013-05-23 18:52:00,
2013-05-23 13:00:00,62.0,-99.9,-100.00,South,185,13.0,18.0,-999,-99.99,,,-99.99,,2013-05-23 19:00:00,
2013-05-23 13:52:00,62.0,-99.9,-100.00,South,185,13.0,18.0,-999,-99.99,,,-99.99,,2013-05-23 19:52:00,
2013-05-23 14:00:00,64.0,-99.9,-100.00,South,185,15.0,22.0,-999,-99.99,,,-99.99,,2013-05-23 20:00:00,
2013-05-23 14:52:00,64.0,-99.9,-100.00,South,185,15.0,22.0,-999,-99.99,,,-99.99,,2013-05-23 20:52:00,
2013-05-23 15:00:00,64.0,-99.9,-100.00,South,185,9.0,23.0,-999,-99.99,,,-99.99,,2013-05-23 21:00:00,
2013-05-23 15:53:00,64.0,-99.9,-100.00,South,185,9.0,23.0,-999,-99.99,,,-99.99,,2013-05-23 21:53:00,
2013-05-23 16:00:00,66.0,-99.9,-100.00,South,185,15.0,22.0,-999,-99.99,,,-99.99,,2013-05-23 22:00:00,
2013-05-23 16:52:00,66.0,-99.9,-100.00,South,185,15.0,22.0,-999,-99.99,,,-99.99,,2013-05-23 22:52:00,
2013-05-23 17:00:00,66.0,-99.9,-100.00,South,185,10.0,23.0,-999,-99.99,,,-99.99,,2013-05-23 23:00:00,
2013-05-23 17:52:00,66.0,-99.9,-100.00,South,185,10.0,23.0,-999,-99.99,,,-99.99,,2013-05-23 23:52:00,
2013-05-23 18:00:00,64.0,-99.9,-100.00,South,185,9.0,17.0,-999,-99.99,,,-99.99,,2013-05-24 00:00:00,
2013-05-23 18:52:00,64.0,-99.9,-100.00,South,185,9.0,17.0,-999,-99.99,,,-99.99,,2013-05-24 00:52:00,
2013-05-23 19:00:00,62.0,-99.9,-100.00,South,185,6.0,18.0,-999,-99.99,,,-99.99,,2013-05-24 01:00:00,
2013-05-23 19:52:00,62.0,-99.9,-100.00,South,185,6.0,18.0,-999,-99.99,,,-99.99,,2013-05-24 01:52:00,
2013-05-23 20:00:00,59.0,-99.9,-100.00,South,185,6.0,17.0,-999,-99.99,,,-99.99,,2013-05-24 02:00:00,
2013-05-23 20:52:00,59.0,-99.9,-100.00,South,185,6.0,17.0,-999,-99.99,,,-99.99,,2013-05-24 02:52:00,
2013-05-23 21:53:00,55.0,-99.9,-100.00,South,185,7.0,16.0,-999,-99.99,,,-99.99,,2013-05-24 03:53:00,
2013-05-23 22:00:00,53.0,-99.9,-100.00,South,185,7.0,19.0,-999,-99.99,,,-99.99,,2013-05-24 04:00:00,
2013-05-23 22:03:00,55.0,-99.9,-100.00,South,185,7.0,16.0,-999,-99.99,,,-99.99,,2013-05-24 04:03:00,
2013-05-23 22:53:00,53.0,-99.9,-100.00,South,185,7.0,19.0,-999,-99.99,,,-99.99,,2013-05-24 04:53:00,
2013-05-23 23:00:00,53.0,-99.9,-100.00,South,185,12.0,19.0,-999,-99.99,,,-99.99,,2013-05-24 05:00:00,
2013-05-23 23:52:00,53.0,-99.9,-100.00,South,185,12.0,19.0,-999,-99.99,,,-99.99,,2013-05-24 05:52:00,